Regional Weather Roundup
Issued by NWS Portland, ME

Current Version | Previous Version | Text Only | Print | Product List | Glossary Off
Versions: 1 2 3 4 5 6 7 8 9 10 11 12 13 14 15 16 17 18 19 20 21 22 23 24 25 26 27 28 29 30 31 32 33 34 35 36 37 38 39 40 41 42 43 44 45 46 47 48 49 50
511 ASUS41 KGYX 301710 RWRGYX WEATHER ROUNDUP FOR MAINE AND NEW HAMPSHIRE NATIONAL WEATHER SERVICE GRAY ME 100 PM EDT SUN APR 30 2017 MEZ002-005-006-010-012-015-018-020-021-024-026-027-029-301800- MAINE CITY SKY/WX TMP DP RH WIND PRES REMARKS PORTLAND CLOUDY 52 31 44 VRB6 30.32R SANFORD CLOUDY 50 31 48 VRB6 30.30R BAR HARBOR SUNNY 53 27 36 N10G16 30.25F WISCASSET CLOUDY 53 27 36 VRB7 30.29F ROCKLAND CLOUDY 48 30 49 S7 30.27F FRYEBURG CLOUDY 51 27 39 CALM 30.29R LEWISTONAUBURN CLOUDY 50 27 40 W7 30.31R AUGUSTA CLOUDY 50 24 36 E5 30.28F BANGOR PTSUNNY 54 25 32 VRB6 30.25F GREENVILLE N/A 45 21 38 NW12G18 30.21F MILLINOCKET PTSUNNY 53 22 29 N7 30.24F HOULTON SUNNY 53 24 32 N9 30.22S PRESQUE ISLE MOSUNNY 48 22 35 N16G22 30.24F FRENCHVILLE SUNNY 48 18 30 N9 30.23F CARIBOU MOSUNNY 51 24 34 N10G17 30.22F $$ NHZ002-005-008-009-011-012-014-301800- NEW HAMPSHIRE CITY SKY/WX TMP DP RH WIND PRES REMARKS PORTSMOUTH CLOUDY 47 30 51 SE10 30.31R ROCHESTER CLOUDY 53 28 38 CALM 30.28R NASHUA CLOUDY 57 31 37 VRB3 N/A MANCHESTER CLOUDY 57 26 30 CALM 30.27F CONCORD CLOUDY 54 28 36 VRB3 30.29S LACONIA LGT RAIN 50 28 42 NE3 30.28F PLYMOUTH LGT RAIN 49 28 42 SW7 30.28F BERLIN CLOUDY 47 23 38 VRB6 30.29R WHITEFIELD CLOUDY 46 23 40 VRB3 30.29S JAFFREY CLOUDY 55 29 36 CALM 30.29R KEENE RAIN 51 30 44 N6 30.28S LEBANON CLOUDY 47 30 51 VRB3 30.27F MT WASHINGTON CLOUDY 41 10 28 NW23 N/A $$ VTZ005-007-008-301800- VERMONT CITY SKY/WX TMP DP RH WIND PRES REMARKS ST JOHNSBURY N/A 44 26 49 MISG 30.25F MONTPELIER LGT RAIN 43 27 53 CALM 30.30F BURLINGTON CLOUDY 43 28 55 NW7 30.30F $$ MAZ007-012-024-CTZ003-RIZ002-NYZ038-NYZ072-301800- SOUTHERN NEW ENGLAND AND NY CITY SKY/WX TMP DP RH WIND PRES REMARKS BOSTON PTSUNNY 50 36 58 E14 30.31F WORCESTER CLOUDY 54 27 35 VRB3 30.26F NANTUCKET SUNNY 52 35 52 NE14 30.30R PROVIDENCE MOSUNNY 61 39 44 E9 30.27S HARTFORD TSTM 53 38 56 NW10 30.29R ALBANY LGT RAIN 49 31 49 NE7 30.28F NEW YORK CITY CLOUDY 62 41 46 SE16 30.25R $$ ANZ081-ANZ082-ANZ150-NHZ014-MEZ023>029-301800- COASTAL MARINE OBSERVATIONS STATION/POSITION TIME TEMP WIND PRES WAVE AIR SEA DIR/SP/G HT/PER (UTC) (F) (DEG/KT/KT) (MB) (FT/S) MOUNT DESERT ROC 1700 42 1025.2F MATINICUS ROCK 1600 43 80/ 2/ 2 1025.2F ISLE OF SHOALS 1600 44 110/ 13/ 14 1025.7F JEFFREYS LEDGE 1606 45 N/A 4/ 5 CASHES LEDGE BUO 1650 46 44 1026.0F 3/ 5 GEORGES BANK BUO 1550 41 40 1024.1 5/ 7 $$ .............KEY.............. WCI - WIND CHILL TC - TEMPERATURE IN CELSIUS VSB - VISIBILITY IN MILES HX - HEAT INDEX FAIR- INDICATES FEW OR NO CLOUDS BELOW 12,000 FT, WITH NO SIGNIFICANT WEATHER AND/OR OBSTRUCTIONS TO VISIBILITY.

USA.gov is the U.S. government's official web portal to all federal, state and local government web resources and services.